FW0052 Weather Reports


time (UTC)temp
F
wind
direction
speed
knots
gust
knots
rain 1hr
in
rain 24hr
in
rain mn
in
humidity
%
barometer
mb
20260506113016 38 228 0.9 4.3 0.00 0.03 0.00 84 1007.1
20260506110016 38 215 0.0 4.3 0.00 0.03 0.00 83 1006.6
20260506103018 40 10 0.9 4.3 0.00 0.03 0.00 84 1006.5
20260506100016 40 354 1.7 4.3 0.00 0.03 0.00 85 1006.3
20260506093016 41 349 0.9 3.5 0.00 0.03 0.00 83 1006.1
20260506090017 42 324 0.0 3.5 0.00 0.03 0.00 80 1006.0
20260506083017 45 290 0.0 5.2 0.00 0.03 0.00 77 1006.0
20260506073016 47 342 0.9 4.3 0.00 0.03 0.00 77 1006.0
20260506050157 56 10 5.2 11.3 0.00 0.03 0.03 62 1004.8
20260506043018 59 341 2.6 18.2 0.00 0.03 0.03 47 1004.1
20260506040056 61 232 6.1 18.2 0.00 0.03 0.03 42 1003.1
20260506033119 56 264 2.6 14.8 0.00 0.03 0.03 59 1002.4
20260506030017 56 148 0.9 9.6 0.00 0.03 0.03 65 1001.8
20260506023016 57 162 0.9 9.6 0.00 0.03 0.03 61 1001.5
20260506020016 59 300 0.9 5.2 0.00 0.03 0.03 58 1001.2
20260506013016 61 10 0.9 9.6 0.00 0.03 0.03 56 1000.4
20260506010015 61 6 4.3 10.4 0.00 0.03 0.03 57 1000.2
20260506003015 62 7 6.1 15.6 0.00 0.03 0.03 54 1000.1
20260506000018 63 13 7.8 16.5 0.00 0.03 0.03 55 999.9
20260505233015 63 1 7.8 16.5 0.00 0.03 0.03 56 1000.0
20260505230016 63 359 8.7 20.0 0.00 0.03 0.03 58 1000.1
20260505223016 62 337 8.7 22.6 0.00 0.03 0.03 60 1000.3
20260505220016 64 336 11.3 22.6 0.00 0.03 0.03 58 1000.5
20260505213035 66 356 6.1 17.4 0.00 0.03 0.03 56 1000.0
20260505210015 66 333 8.7 20.0 0.00 0.03 0.03 55 1000.3
20260505203018 64 320 10.4 20.0 0.00 0.03 0.03 59 1000.8
20260505200015 63 342 7.8 18.2 0.02 0.02 0.02 66 1000.8
20260505193015 64 339 5.2 13.9 0.02 0.02 0.02 58 1001.1
20260505190036 66 107 7.0 14.8 0.00 0.00 0.00 57 1001.3
20260505183015 61 123 7.8 14.8 0.00 0.00 0.00 62 1001.7
20260505180015 60 122 3.5 10.4 0.00 0.00 0.00 67 1002.1
20260505173015 58 7 3.5 9.6 0.00 0.00 0.00 72 1002.1
20260505170017 57 133 0.9 7.0 0.00 0.00 0.00 74 1002.2
20260505163017 57 202 2.6 7.8 0.00 0.00 0.00 72 1002.2
20260505153037 59 195 0.9 6.1 0.00 0.00 0.00 58 1002.5
20260505123016 58 212 0.9 6.1 0.00 0.00 0.00 54 1002.3
20260505120016 58 208 2.6 6.1 0.00 0.00 0.00 54 1002.3